Location: Camaret
(48.2753°N, 4.5961°W)
Time: 04:28:53
(UTC+00:00)

Cosmos 2151 - Pass Details

Date: 29 October 2020
Orbit: 580 x 601 km, 82.5° (Epoch: 01 December)

Event Time Altitude Azimuth Distance (km) Brightness Sun altitude
Rises 19:08:41 0° 353° (N) 2,821 6.6 -21.3°
Reaches altitude 10° 19:10:55 10° 356° (N) 1,914 5.6 -21.7°
Enters shadow 19:14:04 46° 21° (NNE) 795 3.4 -22.2°
